Wind_Speed
7 5 4 6 8 9 11 13 14 15 15 14 13 11 9 8 7 6 4 4 4 5 6 6 8 8 10 10 11 11 11 12 13 14 14 14 14 14 15 16 17 17 18 19
8 5 4 6 8 9 11 13 13 14 15 15 13 9 8 5 4 5 4 3 3 3 3 3 4 6 8 8 8 10 11 11 12 12 13 13 13 14 15 15 16 16 17 17
7 5 4 6 7 9 10 12 13 14 14 15 14 9 6 4 3 2 1 2 3 3 2 3 3 4 4 5 7 8 10 11 11 11 11 12 13 13 14 14 15 15 15 16
6 5 5 6 7 8 10 11 12 13 14 14 12 10 5 3 1 1 2 2 2 1 1 1 2 3 4 5 6 8 9 10 10 10 10 11 12 13 13 14 14 14 16 17
6 6 6 7 8 8 9 10 11 11 12 10 8 7 3 1 1 1 2 2 2 2 1 0 1 2 3 5 6 8 9 9 9 10 10 11 12 13 13 14 15 15 16 16
7 6 7 8 7 8 10 10 9 9 10 9 8 5 1 2 2 2 2 3 3 2 2 2 2 3 4 5 7 8 9 9 9 10 10 11 12 13 14 14 15 16 16 17
7 7 6 8 8 9 10 10 10 9 9 8 6 1 4 4 4 3 3 4 4 3 4 4 4 4 4 6 7 8 9 9 10 11 11 12 13 14 15 16 16 17 17 18
8 8 8 8 9 9 9 9 9 9 10 8 2 2 4 5 5 4 3 3 4 4 4 4 4 5 6 7 8 9 9 10 11 11 12 13 14 15 16 16 17 18 19 20
9 8 8 8 10 9 8 8 8 9 10 5 2 5 5 4 5 4 3 4 4 4 4 3 4 5 6 7 8 9 10 11 11 12 13 14 15 16 17 18 19 20 20 21
11 9 9 10 11 10 10 10 9 10 8 5 1 1 2 2 4 4 4 3 4 4 3 3 5 6 6 7 8 9 10 12 12 13 15 15 16 18 19 19 20 21 22 23
13 12 11 12 11 12 12 12 12 11 10 8 5 3 2 2 3 4 4 4 3 3 3 4 5 6 7 7 9 10 11 12 13 14 15 16 18 19 19 20 22 23 24 25
14 13 12 13 13 12 13 14 13 12 11 9 8 6 4 4 3 3 4 3 3 2 3 4 5 6 7 8 9 10 11 12 13 14 15 17 18 19 20 22 24 25 26 28
15 14 14 13 13 13 13 13 13 12 11 10 10 8 6 5 4 2 3 3 3 3 3 5 5 7 8 8 9 10 11 12 13 15 16 18 19 20 22 23 25 27 28 30
15 15 15 14 13 13 13 14 14 13 11 11 10 9 7 6 5 3 3 3 4 4 4 5 6 7 8 9 9 10 12 13 14 16 17 19 20 22 23 25 27 28 30 31
18 15 15 14 13 13 13 13 15 14 13 12 10 10 8 7 6 4 4 5 5 5 5 6 7 8 9 9 10 11 12 13 15 17 18 20 22 23 25 26 28 30 31 32
17 17 15 14 14 14 14 14 15 14 14 13 12 10 9 8 6 5 5 6 6 6 7 7 8 9 10 10 11 12 13 14 16 18 20 22 23 24 26 27 29 31 32 33
17 17 17 16 15 15 14 14 15 15 15 13 13 11 10 9 7 6 6 7 7 7 7 8 9 10 10 11 12 13 14 16 18 20 21 23 24 26 28 29 30 31 33 33
17 18 18 17 17 16 12 14 15 16 16 15 14 13 11 9 8 7 7 8 8 8 9 9 10 11 11 12 13 14 16 17 19 21 22 24 26 27 29 30 31 32 33 34
17 18 18 17 18 16 15 16 16 17 18 17 15 13 12 11 9 8 9 9 9 9 10 11 11 12 13 14 15 16 17 19 21 22 24 26 27 29 30 31 32 33 34 35
20 20 20 18 18 18 17 17 18 19 19 18 17 14 13 11 10 10 11 11 11 11 11 12 12 13 14 15 16 18 19 20 22 23 25 27 28 30 31 32 33 34 35 36
21 22 21 19 19 19 18 18 19 20 19 19 18 17 15 14 13 13 13 12 12 12 13 13 14 14 15 17 18 19 20 22 23 25 26 28 30 31 32 33 34 35 36 37
22 22 21 19 19 19 19 19 19 18 19 18 17 17 16 15 15 14 14 13 13 13 14 15 16 17 18 19 20 21 22 23 25 26 28 29 31 32 33 33 34 35 37 38
22 22 21 20 17 17 18 18 18 18 18 18 18 17 16 16 16 16 15 15 15 15 16 16 17 18 19 21 22 23 24 25 26 28 29 31 32 32 33 34 35 37 38 39
20 20 19 19 17 17 17 18 18 17 17 18 18 17 17 17 17 16 16 16 17 17 18 18 19 21 22 23 24 25 26 27 28 30 31 32 33 33 33 35 36 37 39 40
21 21 20 19 16 15 15 16 16 17 17 18 18 18 18 18 18 17 18 18 18 19 20 20 21 22 23 24 25 26 28 29 30 31 33 33 33 34 35 36 37 38 39 40
21 22 21 19 17 17 17 17 16 15 15 16 18 19 19 19 19 19 19 20 20 20 21 22 23 24 25 26 27 28 30 31 32 33 33 34 34 35 36 37 38 39 40 40
Wind_Direction
271 277 321 338 345 341 336 329 327 327 328 330 327 319 307 292 287 286 276 260 246 259 267 249 248 267 279 284 291 296 298 299 298 298 297 297 296 297 296 295 293 292 293 292
264 271 318 335 336 332 324 322 322 321 326 332 332 327 324 317 305 294 274 239 223 260 286 273 273 278 284 286 291 297 301 305 304 303 301 302 304 304 303 299 295 295 295 294
266 272 308 316 321 319 315 317 320 322 326 329 332 331 326 319 330 337 242 216 208 255 283 295 296 301 292 291 295 301 306 308 309 310 310 309 309 308 307 304 302 301 301 299
273 283 289 289 299 309 311 315 317 317 321 322 321 324 323 332 346 76 99 116 159 188 304 302 300 307 306 308 314 319 322 323 321 319 317 316 316 315 314 312 311 310 308 305
272 276 271 276 287 302 313 316 320 323 328 324 319 315 313 335 32 103 108 103 102 88 68 47 333 338 336 333 334 338 340 337 332 328 325 323 322 322 320 319 316 314 311 309
266 274 276 269 279 295 305 305 313 322 325 330 326 319 207 149 125 130 108 87 86 74 75 54 34 11 360 351 347 347 347 343 341 339 336 333 331 330 328 326 323 320 317 314
266 267 271 276 286 291 293 295 300 309 318 330 343 57 133 131 119 116 108 96 96 88 80 60 43 22 9 357 350 349 348 349 349 346 343 340 339 337 335 332 329 325 321 317
272 275 277 275 288 288 287 288 296 307 315 323 348 120 119 109 92 93 95 94 93 85 68 51 35 23 12 2 355 351 351 352 351 349 347 345 344 342 338 335 332 329 326 322
273 275 275 271 280 281 277 274 287 301 315 335 80 108 101 84 71 67 59 65 78 77 58 42 25 15 7 359 355 355 355 355 353 352 350 348 346 343 340 337 334 331 328 325
270 272 269 267 269 272 269 268 275 288 300 293 271 138 70 48 54 46 38 55 71 69 56 35 20 9 359 354 354 357 357 356 353 351 350 347 344 342 341 339 336 334 331 329
266 266 267 266 266 270 266 267 273 278 282 278 268 290 312 342 23 37 50 57 61 59 42 24 15 4 354 350 352 354 353 351 349 348 347 345 343 341 339 338 336 335 333 331
256 266 271 271 269 271 266 267 267 265 268 269 274 287 304 330 349 37 44 44 52 45 23 10 2 354 349 349 349 348 346 344 343 343 342 342 341 341 339 338 337 335 333 331
251 260 268 269 268 268 262 258 259 260 259 261 272 288 296 317 323 346 16 21 25 23 9 356 348 346 346 344 343 341 340 339 339 338 338 339 339 338 338 338 337 335 333 331
249 259 267 269 268 265 257 246 247 251 257 263 268 280 291 306 316 323 346 358 2 2 351 339 337 339 338 337 336 336 336 335 335 335 336 336 336 336 336 335 335 334 333 331
254 258 264 266 263 259 251 239 238 244 256 262 267 274 283 295 307 315 328 341 345 341 331 326 328 329 330 330 330 331 332 333 333 334 334 334 334 334 334 334 334 334 333 332
255 256 261 267 263 257 245 239 239 243 249 258 265 272 284 294 303 310 318 324 324 321 312 311 316 319 321 321 322 324 327 329 330 331 332 332 332 332 332 332 333 333 332 332
256 258 260 262 261 258 249 240 243 246 249 257 265 272 282 294 300 304 306 307 309 306 301 300 305 310 312 313 315 317 319 322 325 327 328 330 330 330 330 330 331 331 331 331
258 256 258 257 253 253 247 242 242 248 252 256 260 265 273 282 290 292 292 295 297 295 293 293 298 305 308 309 311 313 315 317 321 325 326 327 327 328 329 329 329 330 330 330
257 254 256 255 254 254 245 242 245 246 248 254 258 262 269 276 281 284 285 287 288 286 286 290 295 301 304 307 309 311 312 315 318 321 322 323 324 325 327 327 328 329 330 330
252 255 257 257 255 250 245 246 247 249 248 254 258 262 269 277 276 278 280 278 279 279 283 287 291 296 301 305 307 309 310 312 315 318 321 322 323 324 325 326 326 327 328 330
254 258 259 259 254 251 248 246 246 249 253 255 256 259 266 275 275 274 275 275 274 277 281 286 289 293 297 301 305 307 308 310 313 316 319 321 322 323 324 325 326 327 328 329
255 259 259 255 254 256 255 251 250 254 253 253 253 261 267 268 270 272 275 274 275 278 282 286 289 292 296 299 302 305 307 309 311 314 317 319 321 321 321 322 324 325 327 328
260 261 261 261 261 258 257 254 254 255 256 256 257 259 265 266 269 271 272 274 277 280 282 286 290 292 294 297 300 303 306 308 310 312 314 316 319 319 320 321 322 324 325 327
262 265 264 265 267 267 259 256 259 260 262 254 257 263 263 266 267 268 272 275 279 281 284 286 288 290 293 296 299 301 304 307 309 311 312 313 315 317 318 320 322 323 324 325
265 269 269 272 275 273 267 266 264 261 261 259 256 261 265 267 268 269 272 275 278 281 283 286 288 289 292 294 298 300 301 305 308 310 312 312 313 315 316 317 319 321 321 322
265 267 269 269 272 272 272 271 268 266 267 264 262 265 270 272 270 270 273 275 278 280 282 285 287 289 290 292 296 299 301 303 305 308 309 310 311 312 315 317 319 320 320 321
Height
5885 5885 5883 5882 5880 5879 5878 5876 5875 5874 5872 5869 5866 5864 5862 5860 5859 5858 5857 5857 5859 5860 5861 5860 5862 5864 5865 5865 5865 5864 5863 5862 5861 5860 5859 5858 5857 5856 5854 5853 5851 5849 5848 5846
5883 5882 5881 5879 5878 5877 5876 5875 5873 5871 5869 5867 5865 5863 5861 5860 5859 5858 5858 5858 5859 5859 5859 5859 5860 5861 5862 5862 5862 5862 5860 5859 5858 5857 5856 5854 5853 5851 5850 5848 5847 5845 5843 5842
5880 5880 5878 5878 5877 5876 5875 5874 5872 5870 5868 5866 5864 5863 5861 5859 5858 5857 5858 5858 5858 5859 5859 5859 5860 5860 5860 5860 5860 5859 5858 5856 5855 5853 5852 5851 5849 5848 5846 5844 5843 5841 5839 5838
5878 5878 5877 5876 5876 5875 5874 5873 5871 5869 5867 5865 5864 5862 5861 5859 5859 5858 5858 5858 5858 5858 5858 5859 5859 5859 5859 5858 5857 5856 5854 5853 5851 5850 5849 5848 5846 5845 5843 5841 5839 5837 5835 5833
5876 5876 5875 5875 5874 5873 5872 5871 5870 5868 5865 5863 5862 5861 5861 5859 5859 5858 5858 5858 5858 5857 5858 5858 5858 5857 5857 5856 5855 5854 5852 5851 5849 5848 5847 5845 5843 5842 5839 5837 5835 5833 5831 5829
5873 5874 5873 5873 5872 5872 5871 5870 5869 5867 5865 5863 5861 5860 5860 5859 5859 5858 5858 5858 5857 5857 5857 5856 5856 5856 5855 5854 5853 5852 5851 5849 5848 5846 5844 5842 5840 5838 5836 5834 5831 5829 5827 5825
5872 5872 5872 5871 5870 5870 5869 5869 5868 5866 5864 5863 5861 5859 5860 5859 5858 5858 5858 5857 5857 5857 5856 5856 5855 5855 5854 5853 5852 5851 5849 5848 5846 5844 5842 5840 5838 5835 5833 5830 5828 5826 5823 5821
5869 5870 5869 5869 5868 5867 5866 5866 5866 5865 5863 5862 5861 5860 5860 5859 5858 5857 5857 5857 5857 5856 5856 5855 5855 5854 5853 5852 5851 5850 5848 5846 5844 5842 5840 5837 5835 5833 5830 5827 5825 5822 5819 5816
5866 5866 5866 5866 5865 5865 5864 5863 5863 5862 5861 5861 5860 5861 5860 5858 5857 5857 5856 5855 5855 5855 5855 5854 5854 5853 5852 5851 5850 5848 5846 5844 5841 5839 5837 5835 5832 5830 5827 5824 5821 5818 5815 5812
5862 5863 5863 5863 5863 5863 5863 5862 5861 5860 5860 5859 5859 5859 5859 5858 5856 5855 5854 5854 5854 5853 5853 5853 5852 5851 5850 5849 5848 5846 5844 5841 5839 5837 5835 5832 5830 5827 5824 5821 5818 5814 5811 5807
5859 5860 5860 5860 5860 5860 5860 5860 5858 5857 5858 5857 5857 5860 5857 5856 5855 5853 5853 5852 5852 5852 5852 5851 5850 5849 5849 5847 5846 5844 5842 5840 5838 5835 5833 5830 5827 5824 5821 5818 5814 5810 5807 5803
5855 5856 5856 5856 5857 5856 5856 5856 5855 5855 5855 5854 5854 5858 5855 5854 5853 5852 5852 5851 5851 5850 5850 5849 5848 5848 5847 5845 5843 5842 5840 5838 5836 5833 5831 5828 5825 5822 5818 5814 5810 5806 5802 5798
5851 5852 5852 5852 5854 5853 5852 5852 5852 5851 5852 5851 5851 5855 5852 5852 5851 5850 5850 5850 5849 5848 5847 5847 5846 5845 5844 5843 5842 5840 5838 5836 5833 5831 5828 5825 5822 5818 5815 5811 5806 5802 5797 5792
5847 5847 5849 5849 5848 5848 5848 5848 5848 5848 5848 5848 5848 5849 5849 5848 5848 5848 5847 5847 5846 5845 5845 5844 5844 5843 5842 5841 5839 5837 5835 5833 5831 5828 5825 5822 5819 5815 5811 5807 5802 5797 5792 5787
5842 5843 5844 5844 5843 5843 5843 5843 5843 5843 5844 5844 5845 5845 5846 5845 5845 5845 5844 5844 5843 5843 5842 5842 5841 5840 5839 5838 5836 5834 5833 5830 5828 5825 5822 5819 5815 5811 5807 5802 5798 5793 5787 5782
5837 5839 5839 5839 5838 5838 5839 5840 5839 5840 5840 5840 5841 5841 5842 5842 5842 5841 5841 5841 5840 5840 5840 5839 5838 5838 5837 5835 5833 5832 5830 5827 5825 5822 5819 5815 5811 5807 5803 5798 5793 5787 5782 5776
5832 5834 5834 5834 5834 5834 5836 5836 5836 5836 5836 5837 5837 5838 5838 5838 5838 5838 5838 5838 5837 5837 5837 5836 5835 5835 5833 5832 5830 5828 5826 5824 5821 5818 5814 5811 5807 5802 5798 5793 5788 5782 5776 5770
5827 5828 5829 5829 5830 5830 5834 5832 5832 5832 5832 5832 5833 5834 5835 5835 5835 5835 5834 5834 5834 5834 5834 5833 5832 5831 5830 5828 5826 5824 5822 5820 5817 5813 5810 5806 5802 5798 5793 5788 5782 5777 5771 5765
5821 5822 5823 5824 5824 5825 5827 5827 5827 5827 5827 5828 5829 5830 5831 5831 5831 5831 5830 5830 5831 5830 5830 5829 5828 5827 5826 5824 5822 5820 5818 5815 5812 5809 5805 5801 5797 5792 5787 5782 5777 5771 5765 5758
5816 5817 5818 5818 5819 5820 5823 5822 5822 5823 5822 5823 5824 5825 5826 5826 5827 5827 5827 5827 5827 5826 5826 5825 5824 5823 5821 5819 5817 5815 5813 5810 5807 5803 5800 5796 5791 5787 5782 5776 5771 5765 5759 5752
5811 5811 5811 5812 5812 5814 5816 5817 5818 5819 5819 5819 5820 5820 5822 5822 5823 5823 5823 5822 5822 5821 5821 5820 5819 5818 5816 5814 5812 5810 5807 5804 5801 5798 5794 5790 5785 5780 5775 5770 5765 5759 5752 5746
5805 5806 5806 5806 5807 5810 5810 5811 5812 5814 5814 5815 5815 5816 5816 5817 5817 5817 5817 5817 5817 5816 5816 5815 5813 5812 5811 5809 5807 5804 5802 5799 5795 5792 5788 5783 5779 5774 5769 5763 5758 5752 5746 5739
5798 5800 5800 5801 5803 5804 5804 5805 5806 5807 5808 5809 5810 5811 5811 5811 5812 5812 5812 5812 5811 5811 5810 5809 5808 5806 5805 5803 5801 5798 5795 5792 5789 5785 5781 5776 5772 5767 5762 5756 5751 5745 5739 5732
5792 5793 5793 5794 5795 5797 5797 5799 5800 5801 5802 5803 5804 5805 5805 5805 5806 5806 5806 5806 5805 5805 5804 5803 5801 5800 5798 5796 5794 5791 5788 5785 5782 5778 5774 5769 5764 5759 5754 5749 5743 5737 5731 5724
5786 5787 5787 5788 5790 5791 5792 5793 5794 5795 5795 5796 5797 5799 5799 5799 5800 5800 5800 5800 5799 5798 5797 5796 5795 5793 5791 5789 5787 5784 5781 5778 5774 5770 5766 5761 5757 5752 5747 5741 5735 5729 5723 5717
5781 5782 5783 5784 5785 5786 5787 5788 5787 5788 5789 5790 5791 5792 5793 5793 5794 5793 5793 5793 5793 5792 5790 5789 5788 5786 5784 5782 5779 5776 5773 5770 5766 5762 5758 5753 5749 5744 5739 5733 5727 5721 5715 5709